Weather History for KMNN - November, 2013

Change the Weather History Date:

Tuesday, November 5, 2013

  Actual Average (KDLZ) Record (KDLZ)
Temperature  
Mean Temperature 50 °F -  
Max Temperature 55 °F 52 °F 75 °F (1964)
Min Temperature 45 °F 35 °F 12 °F (1991)
Degree Days  
Heating Degree Days 15    
Moisture  
Dew Point 40 °F    
Average Humidity 68    
Maximum Humidity 77    
Minimum Humidity 62    
Precipitation  
Precipitation 0.00 in - - ()
Sea Level Pressure  
Sea Level Pressure 30.36 in    
Wind  
Wind Speed 8 mph (South)    
Max Wind Speed 10 mph    
Max Gust Speed -    
Visibility 10 miles    
Events      
Averages and records for this station are not official NWS values.
T = Trace of Precipitation, MM = Missing Value Source: NWS Daily Summary

Daily Weather History Graph

Daily Weather History Graph

Search for Another Location

Airport or City:

Trip Planner

Search our weather history database for the weather conditions in past years. The results will help you decide how hot, cold, wet, or windy it might be!

Date:

Astronomy

Nov. 05, 2013 Rise Set
Actual Time 7:07 AM EST 5:23 PM EST
Civil Twilight 6:38 AM EST 5:52 PM EST
Nautical Twilight 6:06 AM EST 6:24 PM EST
Astronomical Twilight 5:34 AM EST 6:56 PM EST
Moon 9:21 AM EST (11/5) 7:23 PM EST (11/5)
Length of Visible Light 11h 13m
Length of Day
10h 16m
Waxing Crescent, 6% of the Moon is Illuminated
Nov 5
Waxing Crescent
Nov 10
First Quarter
Nov 17
Full
Nov 25
Last Quarter
Dec 2
New

Hourly Weather History & Observations

Time (EST) Temp. Windchill Dew Point Humidity Pressure Visibility Wind Dir Wind Speed Gust Speed Precip Events Conditions
12:53 AM 45.0 °F 40.6 °F 37.0 °F 74% 30.38 in 10.0 mi SSE 8.1 mph - N/A   Clear
1:53 AM 46.0 °F 41.9 °F 37.0 °F 71% 30.38 in 10.0 mi South 8.1 mph - N/A   Clear
2:53 AM 46.9 °F - 37.0 °F 68% 30.38 in 10.0 mi South 8.1 mph - N/A   Overcast
3:53 AM 48.0 °F - 37.0 °F 66% 30.38 in 10.0 mi South 8.1 mph - N/A   Overcast
4:53 AM 48.0 °F - 37.9 °F 68% 30.39 in 10.0 mi South 8.1 mph - N/A   Overcast
5:53 AM 46.9 °F - 37.9 °F 71% 30.40 in 10.0 mi South 8.1 mph - N/A   Clear
6:53 AM 48.0 °F - 37.0 °F 66% 30.40 in 10.0 mi South 10.4 mph - N/A   Clear
7:53 AM 48.0 °F - 37.9 °F 68% 30.41 in 10.0 mi South 6.9 mph - N/A   Scattered Clouds
8:53 AM 50.0 °F - 41.0 °F 71% 30.43 in 10.0 mi South 9.2 mph - N/A   Mostly Cloudy
9:53 AM 52.0 °F - 41.0 °F 66% 30.43 in 7.0 mi South 10.4 mph - N/A   Mostly Cloudy
10:53 AM 54.0 °F - 42.1 °F 64% 30.42 in 10.0 mi South 10.4 mph - N/A   Partly Cloudy
11:53 AM 55.0 °F - 43.0 °F 64% 30.42 in 10.0 mi South 9.2 mph - N/A   Clear
12:53 PM 55.9 °F - 43.0 °F 62% 30.39 in 10.0 mi SSW 9.2 mph - N/A   Scattered Clouds
1:53 PM 55.9 °F - 43.0 °F 62% 30.38 in 10.0 mi South 9.2 mph - N/A   Clear
2:53 PM 55.9 °F - 44.1 °F 64% 30.35 in 10.0 mi South 5.8 mph - N/A   Partly Cloudy
3:53 PM 55.9 °F - 43.0 °F 62% 30.35 in 10.0 mi South 10.4 mph - N/A   Clear
4:53 PM 54.0 °F - 42.1 °F 64% 30.33 in 10.0 mi SSE 4.6 mph - N/A   Clear
5:53 PM 51.1 °F - 41.0 °F 68% 30.30 in 10.0 mi SE 6.9 mph - N/A   Clear
6:53 PM 48.9 °F - 41.0 °F 74% 30.32 in 10.0 mi South 4.6 mph - N/A   Clear
7:53 PM 48.9 °F - 42.1 °F 77% 30.32 in 10.0 mi SE 4.6 mph - N/A   Clear
8:53 PM 50.0 °F - 41.0 °F 71% 30.31 in 10.0 mi South 5.8 mph - N/A   Clear
9:53 PM 48.9 °F - 39.9 °F 71% 30.30 in 10.0 mi SSE 6.9 mph - N/A   Clear
10:53 PM 48.9 °F - 39.0 °F 69% 30.27 in 10.0 mi SSE 8.1 mph - N/A   Overcast
11:53 PM 48.0 °F - 37.0 °F 66% 30.25 in 10.0 mi SSE 10.4 mph - N/A   Clear